FW6720 Weather Reports


Display with metric or nautical units.
time (UTC)temp
F
wind
direction
speed
MPH
gust
MPH
rain 1hr
in
rain 24hr
in
rain mn
in
humidity
%
barometer
mb
20260510174257 61 13 0.0 0.0 0.00 0.00 0.00 62 1021.7
20260510173754 61 15 0.0 0.0 0.00 0.00 0.00 60 1021.5
20260510173249 61 16 0.0 0.0 0.00 0.00 0.00 60 1021.4
20260510172745 62 14 0.0 0.0 0.00 0.00 0.00 57 1021.4
20260510172241 63 17 0.0 0.0 0.00 0.00 0.00 59 1021.1
20260510171738 64 17 0.0 0.0 0.00 0.00 0.00 60 1021.5
20260510171236 63 100 0.0 0.0 0.00 0.00 0.00 54 1021.4
20260510170733 64 113 0.0 0.0 0.00 0.00 0.00 54 1021.2
20260510170228 64 56 0.0 0.0 0.00 0.00 0.00 54 1021.1
20260510165724 64 36 0.0 0.0 0.00 0.00 0.00 55 1020.8
20260510165221 63 53 0.0 0.0 0.00 0.00 0.00 60 1020.9
20260510164718 63 122 0.0 0.0 0.00 0.00 0.00 58 1021.0
20260510164216 62 121 0.0 0.0 0.00 0.00 0.00 57 1021.0
20260510163710 62 124 0.0 0.0 0.00 0.00 0.00 58 1020.8
20260510163207 62 28 0.0 0.0 0.00 0.00 0.00 58 1021.1
20260510162706 60 27 0.0 0.0 0.00 0.00 0.00 61 1021.3
20260510162203 59 52 0.0 0.0 0.00 0.00 0.00 63 1021.0
20260510161659 58 50 0.0 0.0 0.00 0.00 0.00 63 1021.0
20260510161155 58 50 0.0 0.0 0.00 0.00 0.00 64 1020.8
20260510160652 58 48 0.0 0.0 0.00 0.00 0.00 70 1020.9
20260510160148 58 48 0.0 0.0 0.00 0.00 0.00 73 1021.0
20260510155644 58 48 0.0 0.0 0.00 0.00 0.00 75 1020.9
20260510155140 57 48 0.0 0.0 0.00 0.00 0.00 71 1020.6
20260510154636 56 48 0.0 0.0 0.00 0.00 0.00 75 1020.7
20260510154132 56 47 0.0 0.0 0.00 0.00 0.00 76 1020.7
20260510153627 55 48 0.0 0.0 0.00 0.00 0.00 78 1020.7
20260510153124 54 47 0.0 0.0 0.00 0.00 0.00 77 1020.4
20260510152620 54 47 0.0 0.0 0.00 0.00 0.00 84 1020.6
20260510152116 54 47 0.0 0.0 0.00 0.00 0.00 87 1020.7
20260510151613 53 46 0.0 0.0 0.00 0.00 0.00 86 1020.6
20260510151112 53 46 0.0 0.0 0.00 0.00 0.00 88 1020.4
20260510150611 53 46 0.0 0.0 0.00 0.00 0.00 89 1020.3
20260510150108 52 46 0.0 0.0 0.00 0.00 0.00 90 1020.7
20260510145604 52 46 0.0 0.0 0.00 0.00 0.00 90 1020.6
20260510145101 52 46 0.0 0.0 0.00 0.00 0.00 90 1020.3
20260510144557 51 46 0.0 0.0 0.00 0.00 0.00 90 1020.8
20260510144053 51 46 0.0 0.0 0.00 0.00 0.00 91 1020.2
20260510143548 51 46 0.0 0.0 0.00 0.00 0.00 91 1019.9
20260510143045 51 46 0.0 0.0 0.00 0.00 0.00 91 1020.0
20260510142542 51 46 0.0 0.0 0.00 0.00 0.00 91 1020.1
20260510142039 50 46 0.0 0.0 0.00 0.00 0.00 91 1020.4
20260510141535 50 46 0.0 0.0 0.00 0.00 0.00 92 1020.4
20260510141033 50 46 0.0 0.0 0.00 0.00 0.00 92 1020.2
20260510140529 50 46 0.0 0.0 0.00 0.00 0.00 92 1020.1
20260510140029 49 46 0.0 0.0 0.00 0.00 0.00 92 1020.5
20260510135525 49 46 0.0 0.0 0.00 0.00 0.00 92 1020.3
20260510135021 49 46 0.0 0.0 0.00 0.00 0.00 92 1020.1
20260510134518 49 46 0.0 0.0 0.00 0.00 0.00 92 1019.7
20260510134015 49 46 0.0 0.0 0.00 0.00 0.00 92 1019.6
20260510133511 49 46 0.0 0.0 0.00 0.00 0.00 92 1019.9
20260510133007 49 46 0.0 0.0 0.00 0.00 0.00 93 1019.9
20260510132504 48 46 0.0 0.0 0.00 0.00 0.00 93 1020.2
20260510132001 48 46 0.0 0.0 0.00 0.00 0.00 92 1020.1
20260510131459 48 46 0.0 0.0 0.00 0.00 0.00 92 1019.7
20260510130956 48 46 0.0 0.0 0.00 0.00 0.00 92 1019.4
20260510130452 48 46 0.0 0.0 0.00 0.00 0.00 92 1019.5
20260510125949 48 46 0.0 0.0 0.00 0.00 0.00 92 1019.9
20260510125445 48 47 0.0 0.0 0.00 0.00 0.00 92 1019.7
20260510124942 48 49 0.0 0.0 0.00 0.00 0.00 92 1019.9
20260510124438 48 49 0.0 0.0 0.00 0.00 0.00 92 1020.0
20260510123936 48 49 0.0 0.0 0.00 0.00 0.00 92 1019.7
20260510123431 48 49 0.0 0.0 0.00 0.00 0.00 92 1019.6
20260510122927 48 48 0.0 0.0 0.00 0.00 0.00 92 1019.7
20260510122427 48 49 0.0 0.0 0.00 0.00 0.00 92 1019.8
20260510121924 48 49 0.0 0.0 0.00 0.00 0.00 92 1020.0
20260510121422 48 49 0.0 0.0 0.00 0.00 0.00 92 1020.3
20260510120919 48 49 0.0 0.0 0.00 0.00 0.00 92 1019.9
20260510120416 48 49 0.0 0.0 0.00 0.00 0.00 92 1019.6
20260510115912 48 49 0.0 0.0 0.00 0.00 0.00 92 1019.8
20260510115409 48 48 0.0 0.0 0.00 0.00 0.00 92 1019.7
20260510114905 48 49 0.0 0.0 0.00 0.00 0.00 92 1019.9
20260510114402 48 49 0.0 0.0 0.00 0.00 0.00 92 1020.0
20260510113857 48 49 0.0 0.0 0.00 0.00 0.00 92 1020.0
20260510113353 48 48 0.0 0.0 0.00 0.00 0.00 92 1019.9
20260510112850 48 49 0.0 0.0 0.00 0.00 0.00 92 1020.1
20260510112347 49 49 0.0 0.0 0.00 0.00 0.00 92 1020.1
20260510111843 48 49 0.0 0.0 0.00 0.00 0.00 92 1019.8
20260510111340 49 49 0.0 0.0 0.00 0.00 0.00 92 1019.8
20260510110840 49 49 0.0 0.0 0.00 0.00 0.00 92 1019.8
20260510110337 49 49 0.0 0.0 0.00 0.00 0.00 92 1019.8
20260510105834 49 49 0.0 0.0 0.00 0.00 0.00 92 1019.9
20260510105333 49 49 0.0 0.0 0.00 0.00 0.00 92 1019.9
20260510104830 49 49 0.0 0.0 0.00 0.00 0.00 91 1019.5
20260510104327 49 49 0.0 0.0 0.00 0.00 0.00 92 1019.5
20260510103823 49 49 0.0 0.0 0.00 0.00 0.00 91 1019.3
20260510103320 49 49 0.0 0.0 0.00 0.00 0.00 91 1019.6
20260510102815 49 49 0.0 0.0 0.00 0.00 0.00 91 1019.6
20260510102311 49 49 0.0 0.0 0.00 0.00 0.00 91 1019.5
20260510101809 50 49 0.0 0.0 0.00 0.00 0.00 91 1019.4
20260510101307 50 49 0.0 0.0 0.00 0.00 0.00 91 1019.4
20260510100802 50 49 0.0 0.0 0.00 0.00 0.00 91 1019.2
20260510100301 50 49 0.0 0.0 0.00 0.00 0.00 91 1019.1
20260510095756 50 49 0.0 0.0 0.00 0.00 0.00 91 1019.3
20260510095251 50 49 0.0 0.0 0.00 0.00 0.00 91 1019.4
20260510094750 50 49 0.0 0.0 0.00 0.00 0.00 91 1019.5
20260510094246 50 49 0.0 0.0 0.00 0.00 0.00 91 1019.3
20260510093742 50 49 0.0 0.0 0.00 0.00 0.00 90 1018.9
20260510093239 51 49 0.0 0.0 0.00 0.00 0.00 90 1018.8
20260510092735 51 49 0.0 0.0 0.00 0.00 0.00 91 1018.9
20260510092231 50 49 0.0 0.0 0.00 0.00 0.00 91 1018.8
20260510091727 50 49 0.0 0.0 0.00 0.00 0.00 91 1018.9
20260510091224 50 49 0.0 0.0 0.00 0.00 0.00 91 1019.1
20260510090720 50 49 0.0 0.0 0.00 0.00 0.00 91 1019.1
20260510090218 50 49 0.0 0.0 0.00 0.00 0.00 91 1019.2
20260510085713 51 49 0.0 0.0 0.00 0.00 0.00 91 1019.1
20260510085208 51 49 0.0 0.0 0.00 0.00 0.00 91 1019.0
20260510084704 51 49 0.0 0.0 0.00 0.00 0.00 90 1019.0
20260510084201 51 49 0.0 0.0 0.00 0.00 0.00 89 1019.2
20260510083658 51 49 0.0 0.0 0.00 0.00 0.00 89 1019.2
20260510083155 51 49 0.0 0.0 0.00 0.00 0.00 88 1019.1
20260510082650 51 49 0.0 0.0 0.00 0.00 0.00 88 1019.0
20260510082146 51 49 0.0 0.0 0.00 0.00 0.00 88 1018.9
20260510081641 52 49 0.0 0.0 0.00 0.00 0.00 88 1018.9
20260510081137 52 49 0.0 0.0 0.00 0.00 0.00 88 1018.6
20260510080637 52 49 0.0 0.0 0.00 0.00 0.00 87 1018.7
20260510080134 52 49 0.0 0.0 0.00 0.00 0.00 87 1018.7
20260510075631 52 49 0.0 0.0 0.00 0.00 0.00 87 1018.6
20260510075128 52 49 0.0 0.0 0.00 0.00 0.00 87 1018.5
20260510074625 52 49 0.0 0.0 0.00 0.00 0.00 87 1018.3
20260510074120 52 49 0.0 0.0 0.00 0.00 0.00 86 1018.5
20260510073617 52 49 0.0 0.0 0.00 0.00 0.00 86 1018.5
20260510073114 53 49 0.0 0.0 0.00 0.00 0.00 86 1018.5
20260510072611 53 49 0.0 0.0 0.00 0.00 0.00 86 1018.6
20260510072107 53 49 0.0 0.0 0.00 0.00 0.00 85 1018.5
20260510071603 53 49 0.0 0.0 0.00 0.00 0.00 85 1018.5
20260510071101 53 49 0.0 0.0 0.00 0.00 0.00 85 1018.5
20260510070557 53 49 0.0 0.0 0.00 0.00 0.00 85 1018.4
20260510070055 53 49 0.0 0.0 0.00 0.00 0.00 84 1018.4
20260510065551 53 49 0.0 0.0 0.00 0.00 0.00 84 1018.6
20260510065047 53 49 0.0 0.0 0.00 0.00 0.00 84 1018.4
20260510064543 54 49 0.0 0.0 0.00 0.00 0.00 84 1018.3
20260510064040 54 49 0.0 0.0 0.00 0.00 0.00 83 1018.5
20260510063537 54 49 0.0 0.0 0.00 0.00 0.00 83 1018.7
20260510063035 54 49 0.0 0.0 0.00 0.00 0.00 83 1018.5
20260510062530 54 49 0.0 0.0 0.00 0.00 0.00 83 1018.5
20260510062026 55 49 0.0 0.0 0.00 0.00 0.00 82 1018.5
20260510061522 55 49 0.0 0.0 0.00 0.00 0.00 82 1018.2
20260510061019 55 49 0.0 0.0 0.00 0.00 0.00 82 1018.4
20260510060515 55 49 0.0 0.0 0.00 0.00 0.00 82 1018.5
20260510060011 55 49 0.0 0.0 0.00 0.00 0.00 82 1018.5
20260510055508 56 49 0.0 0.0 0.00 0.00 0.00 81 1018.3
20260510055006 56 49 0.0 0.0 0.00 0.00 0.00 80 1018.3
20260510054501 56 49 0.0 0.0 0.00 0.00 0.00 80 1018.1
20260510053956 56 49 0.0 0.0 0.00 0.00 0.00 81 1018.2
20260510053451 56 49 0.0 0.0 0.00 0.00 0.00 80 1018.4
20260510052948 56 49 0.0 0.0 0.00 0.00 0.00 80 1018.3
20260510052444 57 49 0.0 0.0 0.00 0.00 0.00 80 1018.3
20260510051941 57 49 0.0 0.0 0.00 0.00 0.00 79 1018.2
20260510051437 57 49 0.0 0.0 0.00 0.00 0.00 79 1018.3
20260510050933 57 49 0.0 0.0 0.00 0.00 0.00 79 1018.2
20260510050430 57 49 0.0 0.0 0.00 0.00 0.00 79 1018.0
20260510045928 57 49 0.0 0.0 0.00 0.00 0.00 79 1018.1
20260510045424 57 49 0.0 0.0 0.00 0.00 0.00 79 1018.1
20260510044921 58 49 0.0 0.0 0.00 0.00 0.00 78 1018.2
20260510044418 58 49 0.0 0.0 0.00 0.00 0.00 78 1018.0
20260510043915 58 49 0.0 0.0 0.00 0.00 0.00 78 1018.4
20260510043411 59 49 0.0 0.0 0.00 0.00 0.00 78 1018.4
20260510042909 59 49 0.0 0.0 0.00 0.00 0.00 78 1018.2
20260510042405 59 49 0.0 0.0 0.00 0.00 0.00 77 1018.1
20260510041901 59 49 0.0 0.0 0.00 0.00 0.00 77 1018.1
20260510041358 60 49 0.0 0.0 0.00 0.00 0.00 77 1018.2
20260510040855 60 49 0.0 0.0 0.00 0.00 0.00 77 1018.0
20260510040352 61 49 0.0 0.0 0.00 0.00 0.00 75 1017.9
20260510035848 61 49 0.0 0.0 0.00 0.00 0.00 75 1017.7
20260510035343 61 49 0.0 0.0 0.00 0.00 0.00 74 1017.6
20260510034839 61 49 0.0 0.0 0.00 0.00 0.00 73 1017.6
20260510034337 62 49 0.0 0.0 0.00 0.00 0.00 74 1017.5
20260510033833 62 49 0.0 0.0 0.00 0.00 0.00 74 1017.5
20260510033330 63 49 0.0 0.0 0.00 0.00 0.00 72 1017.3
20260510032827 63 49 0.0 0.0 0.00 0.00 0.00 71 1017.5
20260510032324 63 48 0.0 0.0 0.00 0.00 0.00 71 1017.3
20260510031819 64 47 0.0 0.0 0.00 0.00 0.00 69 1017.4
20260510031314 64 48 0.0 0.0 0.00 0.00 0.00 67 1017.3
20260510030809 64 47 0.0 0.0 0.00 0.00 0.00 68 1017.4
20260510030306 64 47 0.0 0.0 0.00 0.00 0.00 69 1017.4
20260510025803 65 47 0.0 0.0 0.00 0.00 0.00 68 1017.4
20260510025301 66 47 0.0 0.0 0.00 0.00 0.00 66 1017.3
20260510024757 66 47 0.0 0.0 0.00 0.00 0.00 64 1017.3
20260510024254 66 47 0.0 0.0 0.00 0.00 0.00 65 1017.3
20260510023750 67 47 0.0 0.0 0.00 0.00 0.00 61 1017.3
20260510023247 68 47 0.0 0.0 0.00 0.00 0.00 60 1017.3
20260510022743 68 48 0.0 0.0 0.00 0.00 0.00 59 1017.4
20260510022243 68 47 0.0 0.0 0.00 0.00 0.00 57 1017.4
20260510021743 68 47 0.0 0.0 0.00 0.00 0.00 56 1017.3
20260510021241 69 48 0.0 0.0 0.00 0.00 0.00 58 1017.2
20260510020736 69 47 0.0 0.0 0.00 0.00 0.00 54 1017.3
20260510020231 69 48 0.0 0.0 0.00 0.00 0.00 56 1017.2
20260510015728 69 48 0.0 0.0 0.00 0.00 0.00 52 1017.2
20260510015224 69 48 0.0 0.0 0.00 0.00 0.00 52 1017.5
20260510014719 70 48 0.0 0.0 0.00 0.00 0.00 57 1017.5
20260510014217 70 47 0.0 0.0 0.00 0.00 0.00 58 1017.2
20260510013712 71 48 0.0 0.0 0.00 0.00 0.00 54 1017.3
20260510013208 71 48 0.0 0.0 0.00 0.00 0.00 50 1017.5
20260510012707 71 48 0.0 0.0 0.00 0.00 0.00 52 1017.4
20260510012203 72 48 0.0 0.0 0.00 0.00 0.00 47 1017.5
20260510011658 72 48 0.0 0.0 0.00 0.00 0.00 46 1017.4
20260510011154 72 47 0.0 0.0 0.00 0.00 0.00 51 1017.4
20260510010650 73 48 0.0 0.0 0.00 0.00 0.00 50 1017.3
20260510010148 73 48 0.0 0.0 0.00 0.00 0.00 50 1017.5
20260510005643 73 48 0.0 0.0 0.00 0.00 0.00 50 1017.2
20260510005141 73 47 0.0 0.0 0.00 0.00 0.00 51 1017.3
20260510004639 75 42 0.0 0.0 0.00 0.00 0.00 44 1017.6
20260510004137 74 21 0.0 0.0 0.00 0.00 0.00 46 1017.4
20260510003634 74 21 0.0 0.0 0.00 0.00 0.00 42 1017.5
20260510003129 75 21 0.0 0.0 0.00 0.00 0.00 44 1017.5
20260510002629 75 21 0.0 0.0 0.00 0.00 0.00 45 1017.5
20260510002127 75 21 0.0 0.0 0.00 0.00 0.00 38 1017.5
20260510001623 75 21 0.0 0.0 0.00 0.00 0.00 44 1017.5
20260510001122 75 22 0.0 0.0 0.00 0.00 0.00 47 1017.6
20260510000622 75 22 0.0 0.0 0.00 0.00 0.00 46 1017.4
20260510000120 75 23 0.0 0.0 0.00 0.00 0.00 43 1017.6
20260509235616 75 22 0.0 0.0 0.00 0.00 0.00 48 1017.5
20260509235113 75 24 0.0 0.0 0.00 0.00 0.00 45 1017.9
20260509234608 75 23 0.0 0.0 0.00 0.00 0.00 44 1017.5
20260509234107 74 24 0.0 0.0 0.00 0.00 0.00 46 1017.7
20260509233604 75 23 0.0 0.0 0.00 0.00 0.00 40 1017.9
20260509233101 76 22 0.0 0.0 0.00 0.00 0.00 39 1018.0
20260509232557 77 27 0.0 0.0 0.00 0.00 0.00 34 1017.9
20260509232054 76 28 0.0 0.0 0.00 0.00 0.00 35 1017.9
20260509231551 77 26 0.0 0.0 0.00 0.00 0.00 36 1018.0
20260509231049 77 24 0.0 0.0 0.00 0.00 0.00 40 1018.3
20260509230545 78 26 0.0 0.0 0.00 0.00 0.00 39 1018.4
20260509230043 77 28 0.0 0.0 0.00 0.00 0.00 32 1018.4
20260509225537 76 28 0.0 0.0 0.00 0.00 0.00 37 1018.7
20260509225033 78 27 0.0 0.0 0.00 0.00 0.00 45 1018.4
20260509224529 78 22 0.0 0.0 0.00 0.00 0.00 35 1018.4
20260509224026 77 28 0.0 0.0 0.00 0.00 0.00 30 1018.5
20260509223523 76 27 0.0 0.0 0.00 0.00 0.00 40 1018.6
20260509223021 76 24 0.0 0.0 0.00 0.00 0.00 38 1018.7
20260509222517 77 23 0.0 0.0 0.00 0.00 0.00 31 1018.7
20260509222012 78 22 0.0 0.0 0.00 0.00 0.00 32 1018.8
20260509221508 78 65 0.0 0.0 0.00 0.00 0.00 32 1019.1
20260509221004 78 65 0.0 0.0 0.00 0.00 0.00 33 1018.8
20260509220501 78 65 0.0 0.0 0.00 0.00 0.00 31 1019.2
20260509215956 79 65 0.0 0.0 0.00 0.00 0.00 33 1019.0
20260509215452 79 66 0.0 0.0 0.00 0.00 0.00 32 1019.3
20260509214950 79 67 0.0 0.0 0.00 0.00 0.00 31 1019.6
20260509214447 78 66 0.0 0.0 0.00 0.00 0.00 31 1019.7
20260509213943 77 66 0.0 0.0 0.00 0.00 0.00 33 1019.8
20260509213439 77 134 0.0 0.0 0.00 0.00 0.00 39 1019.5
20260509212937 78 56 0.0 0.0 0.00 0.00 0.00 32 1019.7
20260509212434 76 57 0.0 0.0 0.00 0.00 0.00 32 1019.8
20260509211930 74 57 0.0 0.0 0.00 0.00 0.00 32 1019.6
20260509211426 76 34 0.0 0.0 0.00 0.00 0.00 31 1019.6
20260509210923 75 32 0.0 0.0 0.00 0.00 0.00 31 1019.9
20260509210420 77 33 0.0 0.0 0.00 0.00 0.00 32 1020.1
20260509205916 77 33 0.0 0.0 0.00 0.00 0.00 36 1020.1
20260509205415 77 94 1.0 1.0 0.00 0.00 0.00 30 1020.3
20260509204912 74 52 0.0 0.0 0.00 0.00 0.00 36 1020.2
20260509204408 74 88 1.0 1.0 0.00 0.00 0.00 36 1020.5
20260509203904 74 38 0.0 0.0 0.00 0.00 0.00 38 1020.4
20260509203400 74 37 0.0 0.0 0.00 0.00 0.00 36 1020.2
20260509202858 74 38 0.0 0.0 0.00 0.00 0.00 39 1020.5
20260509202354 73 39 0.0 0.0 0.00 0.00 0.00 38 1020.2
20260509201849 71 39 0.0 0.0 0.00 0.00 0.00 39 1020.3
20260509201345 73 36 0.0 0.0 0.00 0.00 0.00 40 1020.4
20260509200842 73 38 0.0 0.0 0.00 0.00 0.00 39 1020.5
20260509200337 72 54 0.0 0.0 0.00 0.00 0.00 42 1020.7
20260509195834 71 54 0.0 0.0 0.00 0.00 0.00 44 1020.9
20260509195334 70 54 0.0 0.0 0.00 0.00 0.00 47 1021.0
20260509194833 70 54 0.0 0.0 0.00 0.00 0.00 48 1021.2
20260509194330 70 54 0.0 0.0 0.00 0.00 0.00 47 1021.0
20260509193826 70 53 0.0 0.0 0.00 0.00 0.00 44 1021.1
20260509193321 70 53 0.0 0.0 0.00 0.00 0.00 48 1021.0
20260509192817 71 52 0.0 0.0 0.00 0.00 0.00 47 1021.1
20260509192313 71 54 0.0 0.0 0.00 0.00 0.00 46 1021.4
20260509191808 70 55 0.0 0.0 0.00 0.00 0.00 50 1021.4
20260509191305 70 55 0.0 1.0 0.00 0.00 0.00 49 1021.3
20260509190801 69 55 0.0 0.0 0.00 0.00 0.00 51 1021.4
20260509190258 69 55 0.0 0.0 0.00 0.00 0.00 54 1021.5
20260509185755 67 56 0.0 1.0 0.00 0.00 0.00 51 1021.5
20260509185251 69 55 0.0 0.0 0.00 0.00 0.00 51 1021.5
20260509184749 68 55 0.0 0.0 0.00 0.00 0.00 50 1021.8
20260509184246 67 55 0.0 1.0 0.00 0.00 0.00 54 1021.9
20260509183743 66 55 0.0 0.0 0.00 0.00 0.00 60 1021.9
20260509183238 66 54 0.0 1.0 0.00 0.00 0.00 55 1022.0
20260509182733 66 54 0.0 0.0 0.00 0.00 0.00 57 1021.8
20260509182232 66 55 0.0 0.0 0.00 0.00 0.00 57 1021.9
20260509181728 66 55 0.0 0.0 0.00 0.00 0.00 62 1022.0
20260509181226 65 54 0.0 0.0 0.00 0.00 0.00 57 1021.9
20260509180723 66 55 0.0 0.0 0.00 0.00 0.00 57 1022.0
20260509180219 68 54 0.0 0.0 0.00 0.00 0.00 58 1022.1
20260509175716 66 54 0.0 0.0 0.00 0.00 0.00 62 1022.0
20260509175212 65 55 0.0 0.0 0.00 0.00 0.00 63 1021.8
20260509174708 64 54 0.0 0.0 0.00 0.00 0.00 66 1022.2